[[{"header":{"parameterUnit":"m.s-1","parameterCategory":1,"la1":30.2991,"la2":30.254,"lo1":-89.0895,"lo2":-89.0444,"dy":0.0017,"dx":0.0017,"nx":28,"ny":28,"refTime":"2025-12-24T09:00:00:Z","depth":0,"parameterNumber":2,"parameterNumberName":"U-component_of_WINDS"},"data":[0,0,0,0,0,0,0,0,0,0,0,0,0,0,0,0,0,0,0,0,0,0,0,0,0,0,0,0,0,0,0,0,0,0,0,0,0,0,0,0,0,0,0,0,0,0,0,0,0,0,0,0,0,0,0,0,0,0,1.6162,1.6163,0,1.626,1.6262,1.6263,1.6257,1.6256,1.6254,1.6253,1.6357,1.6361,1.6365,0,0,0,0,0,0,0,0,0,0,0,0,0,1.5972,1.5975,1.6162,1.6163,1.6164,1.626,1.6262,1.6263,1.6258,1.6256,1.6254,1.6252,1.6356,1.6361,1.6366,0,0,0,0,0,0,0,0,0,0,0,0,0,1.6061,1.5976,1.6161,1.6173,1.6175,1.626,1.6262,1.6263,1.6258,1.6256,1.6254,1.6252,1.6354,1.636,1.6366,1.6447,0,0,1.6385,1.6388,0,0,0,0,0,0,0,0,1.6056,1.6068,1.617,1.6172,1.6175,1.6244,1.6233,1.6325,1.6258,1.6226,1.6253,1.6251,1.6322,1.633,1.6354,1.6452,1.6457,1.6386,1.6389,1.6392,1.6394,0,0,0,0,0,0,0,1.605,1.6064,1.6201,1.6171,1.6174,1.6174,1.6185,1.625,1.6285,1.6229,1.6229,1.6241,1.6322,1.6348,1.6356,1.6458,1.6385,1.6391,1.6395,1.6397,1.663,1.6632,0,0,0,0,0,0,1.6041,1.6058,1.6198,1.6204,1.6109,1.6179,1.6191,1.6224,1.6284,1.6291,1.6242,1.624,1.6338,1.6349,1.636,1.6459,1.6392,1.6398,1.6401,1.6627,1.663,1.6633,0,0,0,0,0,0,1.6036,1.6053,1.6194,1.6131,1.6149,1.6185,1.6222,1.6227,1.6252,1.6294,1.6301,1.6261,1.6337,1.6351,1.6426,1.6463,1.64,1.6406,1.6625,1.6628,1.6632,1.6659,0,0,0,0,0,0,1.6031,1.6052,1.6082,1.6132,1.6152,1.6257,1.6225,1.6231,1.6263,1.6261,1.6314,1.6321,1.6336,1.6417,1.6432,1.647,1.6411,1.6621,1.6626,1.6631,1.6655,1.6663,1.667,0,0,0,0,0,1.6024,1.6086,1.6083,1.61,1.6191,1.6259,1.6271,1.6287,1.6266,1.6297,1.6324,1.6319,1.6456,1.6424,1.6441,1.6482,1.6619,1.6625,1.663,1.6651,1.6661,1.667,0,0,0,0,0,0,1.604,1.6092,1.609,1.6169,1.621,1.6258,1.6298,1.6297,1.6345,1.6341,1.6359,1.6372,1.6447,1.6472,1.6435,1.6565,1.6535,1.6544,1.6545,1.6555,1.6563,1.6555,1.6416,0,0,0,0,0,1.6052,1.6102,1.6146,1.6212,1.6232,1.6262,1.6292,1.6301,1.6344,1.6361,1.6393,1.6436,1.6489,1.6523,1.6574,1.6658,1.6671,1.6695,1.6703,1.6709,1.6717,1.6765,1.6776,1.6652,1.6652,1.6651,0,0,1.6079,1.6114,1.6144,1.6216,1.6248,1.6301,1.6276,1.6332,1.6372,1.637,1.6442,1.6468,1.6517,1.6597,1.6634,1.662,1.6754,1.6716,1.6721,1.6725,1.6772,1.6783,1.6794,1.6655,1.6655,1.6654,0,0,1.6154,1.6185,1.6244,1.6277,1.6326,1.6345,1.6359,1.6408,1.6425,1.6498,1.6497,1.6546,1.6636,1.6671,1.6701,1.6791,1.6789,1.6807,1.6848,1.6894,1.6904,1.6913,1.6946,1.6957,1.6815,1.6815,1.6815,0,1.6181,1.6259,1.6274,1.6331,1.6364,1.6363,1.6424,1.6455,1.6519,1.6542,1.6525,1.664,1.6673,1.6762,1.6784,1.6808,1.6825,1.6801,1.6901,1.691,1.6918,1.695,1.6963,1.6817,1.6817,1.6817,1.6817,0,1.6291,1.6345,1.6387,1.6448,1.6485,1.6543,1.6568,1.6604,1.661,1.6632,1.6707,1.6747,1.6806,1.6828,1.6835,1.6919,1.6909,1.6897,1.6867,1.6932,1.6962,1.6975,1.682,1.6819,1.6819,1.6818,0,0,1.6378,1.6447,1.6462,1.649,1.6545,1.6588,1.6647,1.6705,1.6736,1.678,1.6831,1.6908,1.6897,1.6931,1.6942,1.6983,1.7053,1.6966,1.6967,1.6981,1.715,1.7159,1.7173,1.7052,1.7054,1.7056,1.7146,0,1.6459,1.6563,1.6579,1.6671,1.6723,1.6724,1.6776,1.6816,1.6838,1.6886,1.6911,1.6966,1.6947,1.6968,1.7008,1.7036,1.7087,1.703,1.7101,1.7103,1.7089,1.7188,1.7198,1.728,1.7158,1.716,1.7161,0,1.6568,1.6615,1.6712,1.6761,1.6783,1.6829,1.6884,1.6929,1.6975,1.6989,1.7027,1.7033,1.7096,1.7064,1.7152,1.7113,1.7143,1.7162,1.7165,1.7173,1.7136,1.7199,1.7307,1.732,1.718,1.7178,1.7177,0,1.6623,1.671,1.678,1.6804,1.6862,1.6895,1.6921,1.6965,1.6999,1.7047,1.707,1.7125,1.7156,1.7199,1.7221,1.7195,1.7308,1.7277,1.7322,1.7321,1.7346,1.7344,1.746,1.7364,1.7364,1.7364,1.7364,0,1.6712,1.6772,1.6805,1.6848,1.6916,1.6934,1.7001,1.7026,1.7066,1.7115,1.7119,1.7165,1.7191,1.7241,1.7259,1.733,1.7343,1.7357,1.7361,1.7357,1.7355,1.7377,1.7372,1.7367,1.7366,1.7366,1.7365,0,1.6785,1.6809,1.6886,1.6935,1.6949,1.6997,1.704,1.7082,1.7104,1.7166,1.7182,1.7217,1.7277,1.7303,1.7376,1.7388,1.7469,1.7469,1.7454,1.7455,1.7498,1.7494,1.7634,1.7653,1.7544,1.7545,1.7545,0,1.684,1.6886,1.6941,1.6974,1.7001,1.7053,1.7088,1.7109,1.7145,1.7202,1.7238,1.7297,1.7346,1.7441,1.7474,1.7531,1.7532,1.7577,1.7541,1.7536,1.7534,1.7531,1.7536,1.7584,1.7585,1.7586,1.7587,0,1.6937,1.6947,1.6996,1.7051,1.7092,1.7136,1.7179,1.7206,1.7234,1.7274,1.7335,1.7373,1.7448,1.7507,1.7566,1.7595,1.7596,1.7598,1.7611,1.7608,1.7597,1.7604,1.7472,1.7595,1.7594,1.7593,1.7593,1.7593,1.7003,1.7045,1.709,1.7145,1.718,1.722,1.7263,1.729,1.7341,1.7403,1.7413,1.7478,1.7524,1.7603,1.7634,1.7686,1.7675,1.7694,1.7699,1.7704,1.7707,1.7589,1.7697,1.7697,1.7697,1.7696,1.7696,0,1.7101,1.713,1.7181,1.7241,1.7285,1.7281,1.7329,1.7366,1.7423,1.7466,1.7514,1.7585,1.7643,1.7681,1.774,1.7774,1.7776,1.7789,1.7787,1.7794,1.7713,1.7696,1.7786,1.7786,1.7786,1.7786,1.7786,1.7786,1.7156,1.7227,1.7242,1.733,1.7359,1.7423,1.745,1.7488,1.7523,1.7601,1.7649,1.7673,1.7714,1.7777,1.783,1.784,1.7862,1.7875,1.7885,1.7809,1.7799,1.779,1.7774,1.788,1.788,1.7961,1.7962,1.7962]},{"header":{"parameterUnit":"m.s-1","parameterCategory":1,"la1":30.2991,"la2":30.254,"lo1":-89.0895,"lo2":-89.0444,"dy":0.0017,"dx":0.0017,"nx":28,"ny":28,"refTime":"2025-12-24T09:00:00:Z","depth":0,"parameterNumber":3,"parameterNumberName":"V-component_of_WINDS"},"data":[0,0,0,0,0,0,0,0,0,0,0,0,0,0,0,0,0,0,0,0,0,0,0,0,0,0,0,0,0,0,0,0,0,0,0,0,0,0,0,0,0,0,0,0,0,0,0,0,0,0,0,0,0,0,0,0,0,0,0.7278,0.7278,0,0.7265,0.7265,0.7265,0.726,0.726,0.726,0.726,0.7245,0.7245,0.7245,0,0,0,0,0,0,0,0,0,0,0,0,0,0.7295,0.7295,0.7278,0.7278,0.7277,0.7265,0.7265,0.7265,0.726,0.726,0.726,0.726,0.7246,0.7245,0.7245,0,0,0,0,0,0,0,0,0,0,0,0,0,0.7286,0.7295,0.7278,0.7273,0.7273,0.7265,0.7265,0.7265,0.726,0.726,0.726,0.726,0.7246,0.7245,0.7244,0.724,0,0,0.7243,0.7242,0,0,0,0,0,0,0,0,0.7286,0.7285,0.7274,0.7274,0.7273,0.7264,0.7266,0.7256,0.726,0.7265,0.726,0.726,0.7251,0.725,0.7248,0.7239,0.7238,0.7243,0.7242,0.7242,0.7242,0,0,0,0,0,0,0,0.7287,0.7285,0.7273,0.7274,0.7273,0.7271,0.727,0.7264,0.7258,0.7264,0.7264,0.7263,0.7251,0.7249,0.7248,0.7238,0.7243,0.7242,0.7242,0.7241,0.7223,0.7223,0,0,0,0,0,0,0.7288,0.7286,0.7273,0.7272,0.728,0.7271,0.727,0.7267,0.7258,0.7257,0.7263,0.7262,0.725,0.7248,0.7247,0.724,0.7242,0.7241,0.7241,0.7223,0.7223,0.7223,0,0,0,0,0,0,0.7289,0.7287,0.7274,0.7279,0.7277,0.7271,0.7268,0.7267,0.7264,0.7257,0.7255,0.7261,0.725,0.7248,0.7241,0.7239,0.7241,0.724,0.7223,0.7223,0.7223,0.7226,0,0,0,0,0,0,0.7289,0.7287,0.7286,0.7279,0.7277,0.7269,0.7268,0.7266,0.7263,0.7263,0.7255,0.7254,0.7249,0.7242,0.7241,0.7239,0.724,0.7223,0.7223,0.7223,0.7226,0.7226,0.7226,0,0,0,0,0,0.729,0.7287,0.7286,0.7285,0.7275,0.7269,0.7268,0.7263,0.7263,0.7261,0.7256,0.7254,0.724,0.7242,0.724,0.7237,0.7224,0.7223,0.7223,0.7226,0.7226,0.7226,0,0,0,0,0,0,0.7294,0.7286,0.7285,0.728,0.7275,0.7268,0.7266,0.7263,0.7258,0.7258,0.7252,0.725,0.7244,0.724,0.7242,0.7232,0.7231,0.7231,0.7235,0.7234,0.7234,0.7235,0.7239,0,0,0,0,0,0.7294,0.7291,0.7284,0.728,0.7278,0.7272,0.7269,0.7266,0.7261,0.7258,0.7253,0.7247,0.7241,0.7238,0.7232,0.7226,0.7223,0.7223,0.7223,0.7223,0.7222,0.7218,0.7217,0.7222,0.7222,0.7222,0,0,0.7295,0.729,0.7288,0.7281,0.7277,0.7272,0.727,0.7266,0.7262,0.7258,0.7251,0.7247,0.724,0.7233,0.723,0.723,0.722,0.7223,0.7223,0.7222,0.7217,0.7217,0.7216,0.7222,0.7222,0.7222,0,0,0.7294,0.729,0.7287,0.7283,0.7276,0.7272,0.7271,0.7264,0.7262,0.7255,0.7251,0.7246,0.7237,0.7232,0.7228,0.7224,0.7221,0.7222,0.7221,0.7217,0.7216,0.7216,0.7214,0.7213,0.7221,0.7221,0.7221,0,0.7296,0.7289,0.7285,0.728,0.7277,0.7273,0.7268,0.7264,0.7256,0.7254,0.7253,0.7241,0.7236,0.7227,0.7226,0.7223,0.7221,0.7223,0.7217,0.7217,0.7216,0.7214,0.7213,0.7221,0.7221,0.7221,0.7221,0,0.7291,0.7286,0.7284,0.7277,0.7273,0.7268,0.7263,0.7259,0.7256,0.7252,0.7245,0.7238,0.7231,0.7229,0.7226,0.722,0.7219,0.7218,0.7218,0.7216,0.7214,0.7213,0.7222,0.7222,0.7221,0.7221,0,0,0.7292,0.7283,0.7282,0.7278,0.727,0.7266,0.7261,0.7254,0.7251,0.7245,0.724,0.7232,0.723,0.7226,0.7222,0.7218,0.7214,0.7217,0.7217,0.7216,0.7206,0.7206,0.7206,0.7212,0.7212,0.7212,0.7206,0,0.729,0.7281,0.7277,0.727,0.7265,0.7261,0.7256,0.725,0.7246,0.7241,0.7236,0.7229,0.7228,0.7225,0.7221,0.7216,0.7212,0.7216,0.7206,0.7206,0.7208,0.7205,0.7206,0.72,0.7205,0.7205,0.7205,0,0.7286,0.7281,0.7273,0.7266,0.7263,0.7259,0.7252,0.7247,0.724,0.7237,0.7232,0.7228,0.7221,0.7222,0.7212,0.7214,0.721,0.7207,0.7206,0.7205,0.7205,0.7203,0.7199,0.7198,0.7204,0.7204,0.7204,0,0.7287,0.7278,0.7272,0.7269,0.726,0.7257,0.7253,0.7247,0.7242,0.7236,0.7233,0.7225,0.7221,0.7215,0.7208,0.7209,0.7199,0.7199,0.7195,0.7195,0.7193,0.7193,0.7188,0.7191,0.7191,0.7191,0.7191,0,0.7285,0.728,0.7273,0.7269,0.7263,0.7258,0.7252,0.7248,0.7241,0.7236,0.7232,0.7226,0.7219,0.7212,0.7207,0.7199,0.7197,0.7194,0.7193,0.7194,0.7195,0.7191,0.7191,0.7191,0.7191,0.7191,0.7191,0,0.7285,0.728,0.7274,0.7265,0.7263,0.7259,0.7252,0.7248,0.7243,0.7236,0.7234,0.7226,0.7218,0.7211,0.7201,0.7197,0.7189,0.7187,0.7191,0.719,0.7187,0.7187,0.7179,0.7177,0.7182,0.7182,0.7182,0,0.7284,0.7281,0.7272,0.7268,0.7265,0.7259,0.7254,0.7249,0.7244,0.7235,0.7232,0.7223,0.7217,0.7204,0.7197,0.7188,0.7186,0.7184,0.7185,0.7186,0.7185,0.7185,0.7185,0.7184,0.7184,0.7184,0.7184,0,0.7282,0.728,0.7274,0.7267,0.7262,0.7257,0.725,0.7247,0.724,0.7235,0.7227,0.7222,0.7211,0.7202,0.7193,0.7188,0.7184,0.7183,0.7182,0.7183,0.7186,0.7184,0.7191,0.7184,0.7184,0.7184,0.7184,0.7184,0.7281,0.7278,0.7271,0.7265,0.7259,0.7254,0.7249,0.7244,0.7237,0.7228,0.7225,0.7216,0.7208,0.7195,0.719,0.7182,0.7182,0.718,0.7179,0.7179,0.7179,0.7187,0.718,0.718,0.718,0.718,0.718,0,0.7279,0.7274,0.7268,0.726,0.7255,0.7252,0.7245,0.7241,0.7233,0.7226,0.722,0.721,0.7201,0.7193,0.7184,0.7179,0.7177,0.7177,0.7177,0.7176,0.718,0.7182,0.7179,0.7179,0.7179,0.7179,0.7179,0.7179,0.7277,0.727,0.7267,0.7257,0.7252,0.7244,0.724,0.7234,0.7229,0.7218,0.7211,0.7206,0.7198,0.7188,0.718,0.7177,0.7174,0.7174,0.7171,0.7175,0.7175,0.7176,0.7177,0.7173,0.7173,0.7167,0.7167,0.7167]}]]